Location: Buckeye Ditch
(40.9104°N, 122.9517°W)
Time: 14:07:05
(UTC+00:00)

FENGYUN 1C DEB - Visible Passes

Search period start: 14 September 2024 00:00
Search period end: 24 September 2024 00:00
Orbit: 612 x 796 km, 98.9° (Epoch: 13 September)

Date Brightness Start Highest point End Pass type
(mag) Time Alt. Az. Time Alt. Az. Time Alt. Az.
14 Sep ? 04:18:10 10° SSW 04:22:49 32° W 04:27:26 10° NW visible
15 Sep ? 03:23:02 10° SSE 03:28:16 80° ENE 03:33:26 10° NNW visible
15 Sep ? 05:04:18 10° WSW 05:06:26 12° W 05:08:34 10° WNW visible
16 Sep ? 04:06:36 10° S 04:11:32 41° W 04:16:23 10° NNW visible
17 Sep ? 03:11:52 10° SSE 03:17:00 62° ENE 03:22:03 10° N visible
17 Sep ? 04:51:47 10° SW 04:55:00 16° W 04:58:11 10° NW visible
18 Sep ? 03:55:03 10° S 04:00:08 53° W 04:05:08 10° NNW visible
19 Sep ? 03:00:40 10° SE 03:05:39 47° ENE 03:10:29 10° N visible
19 Sep ? 04:39:34 10° SW 04:43:28 21° W 04:47:18 10° NW visible
20 Sep ? 03:43:27 10° S 03:48:38 70° WSW 03:53:41 10° NNW visible
21 Sep ? 02:49:27 10° SE 02:54:09 36° ENE 02:58:44 10° N visible
21 Sep ? 04:27:27 10° SSW 04:31:49 27° W 04:36:06 10° NW visible
22 Sep ? 03:31:50 10° SSE 03:37:01 90° SSW 03:42:03 10° NNW visible
22 Sep ? 05:14:48 10° W 05:15:14 10° W 05:15:39 10° W visible
23 Sep ? 02:38:15 10° SE 02:42:34 28° ENE 02:46:47 10° N visible
23 Sep ? 04:15:23 10° SSW 04:20:05 35° W 04:24:40 10° NNW visible
